Year,Month,Day,Hour,Minute,Value (Times are PST for temperature in C)
2008,09,03,00,00,11.40
2008,09,03,00,01,11.40
2008,09,03,00,02,11.40
2008,09,03,00,03,11.40
2008,09,03,00,04,11.40
2008,09,03,00,05,11.40
2008,09,03,00,06,11.40
2008,09,03,00,07,11.40
2008,09,03,00,08,11.40
2008,09,03,00,09,11.40
2008,09,03,00,10,11.40
2008,09,03,00,11,11.40
2008,09,03,00,12,11.40
2008,09,03,00,13,11.40
2008,09,03,00,14,11.40
2008,09,03,00,15,11.40
2008,09,03,00,16,11.40
2008,09,03,00,17,11.40
2008,09,03,00,18,11.40
2008,09,03,00,19,11.40
2008,09,03,00,20,11.40
2008,09,03,00,21,11.40
2008,09,03,00,22,11.40
2008,09,03,00,23,11.40
2008,09,03,00,24,11.40
2008,09,03,00,25,11.40
2008,09,03,00,26,11.40
2008,09,03,00,27,11.40
2008,09,03,00,28,11.40
2008,09,03,00,29,11.40
2008,09,03,00,30,11.40
2008,09,03,00,31,11.30
2008,09,03,00,32,11.30
2008,09,03,00,33,11.40
2008,09,03,00,34,11.40
2008,09,03,00,35,11.40
2008,09,03,00,36,11.40
2008,09,03,00,37,11.40
2008,09,03,00,38,11.40
2008,09,03,00,39,11.40
2008,09,03,00,40,11.40
2008,09,03,00,41,11.50
2008,09,03,00,42,11.60
2008,09,03,00,43,11.60
2008,09,03,00,44,11.60
2008,09,03,00,45,11.60
2008,09,03,00,46,11.60
2008,09,03,00,47,11.70
2008,09,03,00,48,11.70
2008,09,03,00,49,11.70
2008,09,03,00,50,11.70
2008,09,03,00,51,11.80
2008,09,03,00,52,11.80
2008,09,03,00,53,11.80
2008,09,03,00,54,11.80
2008,09,03,00,55,11.80
2008,09,03,00,56,11.80
2008,09,03,00,57,11.80
2008,09,03,00,58,11.80
2008,09,03,00,59,11.80
2008,09,03,01,00,11.80
2008,09,03,01,01,11.80
2008,09,03,01,02,11.80
2008,09,03,01,03,11.80
2008,09,03,01,04,11.80
2008,09,03,01,05,11.80
2008,09,03,01,06,11.80
2008,09,03,01,07,11.80
2008,09,03,01,08,11.80
2008,09,03,01,09,11.80
2008,09,03,01,10,11.80
2008,09,03,01,11,11.80
2008,09,03,01,12,11.80
2008,09,03,01,13,11.80
2008,09,03,01,14,11.80
2008,09,03,01,15,11.80
2008,09,03,01,16,11.80
2008,09,03,01,17,11.80
2008,09,03,01,18,11.70
2008,09,03,01,19,11.70
2008,09,03,01,20,11.70
2008,09,03,01,21,11.70
2008,09,03,01,22,11.60
2008,09,03,01,23,11.60
2008,09,03,01,24,11.60
2008,09,03,01,25,11.60
2008,09,03,01,26,11.60
2008,09,03,01,27,11.60
2008,09,03,01,28,11.60
2008,09,03,01,29,11.60
2008,09,03,01,30,11.60
2008,09,03,01,31,11.60
2008,09,03,01,32,11.60
2008,09,03,01,33,11.60
2008,09,03,01,34,11.60
2008,09,03,01,35,11.60
2008,09,03,01,36,11.60
2008,09,03,01,37,11.60
2008,09,03,01,38,11.60
2008,09,03,01,39,11.60
2008,09,03,01,40,11.60
2008,09,03,01,41,11.60
2008,09,03,01,42,11.60
2008,09,03,01,43,11.60
2008,09,03,01,44,11.60
2008,09,03,01,45,11.60
2008,09,03,01,46,11.60
2008,09,03,01,47,11.60
2008,09,03,01,48,11.60
2008,09,03,01,49,11.60
2008,09,03,01,50,11.60
2008,09,03,01,51,11.60
2008,09,03,01,52,11.60
2008,09,03,01,53,11.60
2008,09,03,01,54,11.60
2008,09,03,01,55,11.60
2008,09,03,01,56,11.60
2008,09,03,01,57,11.60
2008,09,03,01,58,11.60
2008,09,03,01,59,11.60
2008,09,03,02,00,11.60
2008,09,03,02,01,11.60
2008,09,03,02,02,11.60
2008,09,03,02,03,11.60
2008,09,03,02,04,11.60
2008,09,03,02,05,11.60
2008,09,03,02,06,11.60
2008,09,03,02,07,11.60
2008,09,03,02,08,11.60
2008,09,03,02,09,11.60
2008,09,03,02,10,11.60
2008,09,03,02,11,11.60
2008,09,03,02,12,11.60
2008,09,03,02,13,11.60
2008,09,03,02,14,11.40
2008,09,03,02,15,11.40
2008,09,03,02,16,11.40
2008,09,03,02,17,11.40
2008,09,03,02,18,11.50
2008,09,03,02,19,11.60
2008,09,03,02,20,11.60
2008,09,03,02,21,11.60
2008,09,03,02,22,11.60
2008,09,03,02,23,11.60
2008,09,03,02,24,11.60
2008,09,03,02,25,11.60
2008,09,03,02,26,11.60
2008,09,03,02,27,11.60
2008,09,03,02,28,11.60
2008,09,03,02,29,11.80
2008,09,03,02,30,11.90
2008,09,03,02,31,12.00
2008,09,03,02,32,12.00
2008,09,03,02,33,12.10
2008,09,03,02,34,12.20
2008,09,03,02,35,12.30
2008,09,03,02,36,12.30
2008,09,03,02,37,12.30
2008,09,03,02,38,12.40
2008,09,03,02,39,12.40
2008,09,03,02,40,12.50
2008,09,03,02,41,12.50
2008,09,03,02,42,12.50
2008,09,03,02,43,12.60
2008,09,03,02,44,12.60
2008,09,03,02,45,12.60
2008,09,03,02,46,12.60
2008,09,03,02,47,12.60
2008,09,03,02,48,12.60
2008,09,03,02,49,12.50
2008,09,03,02,50,12.40
2008,09,03,02,51,12.30
2008,09,03,02,52,12.30
2008,09,03,02,53,12.20
2008,09,03,02,54,12.10
2008,09,03,02,55,12.00
2008,09,03,02,56,11.90
2008,09,03,02,57,11.80
2008,09,03,02,58,11.80
2008,09,03,02,59,11.70
2008,09,03,03,00,11.70
2008,09,03,03,01,11.60
2008,09,03,03,02,11.60
2008,09,03,03,03,11.60
2008,09,03,03,04,11.60
2008,09,03,03,05,11.60
2008,09,03,03,06,11.60
2008,09,03,03,07,11.60
2008,09,03,03,08,11.60
2008,09,03,03,09,11.60
2008,09,03,03,10,11.60
2008,09,03,03,11,11.60
2008,09,03,03,12,11.60
2008,09,03,03,13,11.60
2008,09,03,03,14,11.60
2008,09,03,03,15,11.60
2008,09,03,03,16,11.60
2008,09,03,03,17,11.60
2008,09,03,03,18,11.60
2008,09,03,03,19,11.60
2008,09,03,03,20,11.60
2008,09,03,03,21,11.60
2008,09,03,03,22,11.60
2008,09,03,03,23,11.60
2008,09,03,03,24,11.50
2008,09,03,03,25,11.40
2008,09,03,03,26,11.40
2008,09,03,03,27,11.40
2008,09,03,03,28,11.40
2008,09,03,03,29,11.40
2008,09,03,03,30,11.30
2008,09,03,03,31,11.30
2008,09,03,03,32,11.20
2008,09,03,03,33,11.20
2008,09,03,03,34,11.20
2008,09,03,03,35,11.20
2008,09,03,03,36,11.20
2008,09,03,03,37,11.10
2008,09,03,03,38,11.10
2008,09,03,03,39,11.10
2008,09,03,03,40,11.10
2008,09,03,03,41,11.10
2008,09,03,03,42,11.10
2008,09,03,03,43,11.10
2008,09,03,03,44,11.00
2008,09,03,03,45,10.90
2008,09,03,03,46,10.90
2008,09,03,03,47,10.90
2008,09,03,03,48,10.90
2008,09,03,03,49,10.90
2008,09,03,03,50,10.90
2008,09,03,03,51,10.90
2008,09,03,03,52,10.90
2008,09,03,03,53,10.90
2008,09,03,03,54,10.90
2008,09,03,03,55,10.90
2008,09,03,03,56,10.90
2008,09,03,03,57,10.90
2008,09,03,03,58,10.90
2008,09,03,03,59,10.90
2008,09,03,04,00,10.90
2008,09,03,04,01,10.90
2008,09,03,04,02,10.80
2008,09,03,04,03,10.80
2008,09,03,04,04,10.80
2008,09,03,04,05,10.80
2008,09,03,04,06,10.80
2008,09,03,04,07,10.70
2008,09,03,04,08,10.70
2008,09,03,04,09,10.70
2008,09,03,04,10,10.70
2008,09,03,04,11,10.70
2008,09,03,04,12,10.70
2008,09,03,04,13,10.70
2008,09,03,04,14,10.70
2008,09,03,04,15,10.70
2008,09,03,04,16,10.70
2008,09,03,04,17,10.70
2008,09,03,04,18,10.70
2008,09,03,04,19,10.70
2008,09,03,04,20,10.70
2008,09,03,04,21,10.70
2008,09,03,04,22,10.60
2008,09,03,04,23,10.60
2008,09,03,04,24,10.60
2008,09,03,04,25,10.60
2008,09,03,04,26,10.60
2008,09,03,04,27,10.60
2008,09,03,04,28,10.60
2008,09,03,04,29,10.50
2008,09,03,04,30,10.40
2008,09,03,04,31,10.40
2008,09,03,04,32,10.40
2008,09,03,04,33,10.40
2008,09,03,04,34,10.40
2008,09,03,04,35,10.50
2008,09,03,04,36,10.60
2008,09,03,04,37,10.60
2008,09,03,04,38,10.60
2008,09,03,04,39,10.60
2008,09,03,04,40,10.50
2008,09,03,04,41,10.40
2008,09,03,04,42,10.40
2008,09,03,04,43,10.40
2008,09,03,04,44,10.40
2008,09,03,04,45,10.40
2008,09,03,04,46,10.40
2008,09,03,04,47,10.40
2008,09,03,04,48,10.40
2008,09,03,04,49,10.40
2008,09,03,04,50,10.40
2008,09,03,04,51,10.40
2008,09,03,04,52,10.40
2008,09,03,04,53,10.50
2008,09,03,04,54,10.60
2008,09,03,04,55,10.60
2008,09,03,04,56,10.60
2008,09,03,04,57,10.60
2008,09,03,04,58,10.60
2008,09,03,04,59,10.60
2008,09,03,05,00,10.60
2008,09,03,05,01,10.60
2008,09,03,05,02,10.60
2008,09,03,05,03,10.60
2008,09,03,05,04,10.60
2008,09,03,05,05,10.50
2008,09,03,05,06,10.40
2008,09,03,05,07,10.40
2008,09,03,05,08,10.40
2008,09,03,05,09,10.40
2008,09,03,05,10,10.40
2008,09,03,05,11,10.40
2008,09,03,05,12,10.40
2008,09,03,05,13,10.40
2008,09,03,05,14,10.40
2008,09,03,05,15,10.40
2008,09,03,05,16,10.40
2008,09,03,05,17,10.40
2008,09,03,05,18,10.40
2008,09,03,05,19,10.40
2008,09,03,05,20,10.40
2008,09,03,05,21,10.40
2008,09,03,05,22,10.40
2008,09,03,05,23,10.40
2008,09,03,05,24,10.30
2008,09,03,05,25,10.30
2008,09,03,05,26,10.30
2008,09,03,05,27,10.30
2008,09,03,05,28,10.30
2008,09,03,05,29,10.30
2008,09,03,05,30,10.30
2008,09,03,05,31,10.30
2008,09,03,05,32,10.30
2008,09,03,05,33,10.30
2008,09,03,05,34,10.30
2008,09,03,05,35,10.30
2008,09,03,05,36,10.30
2008,09,03,05,37,10.40
2008,09,03,05,38,10.40
2008,09,03,05,39,10.40
2008,09,03,05,40,10.40
2008,09,03,05,41,10.40
2008,09,03,05,42,10.40
2008,09,03,05,43,10.40
2008,09,03,05,44,10.40
2008,09,03,05,45,10.40
2008,09,03,05,46,10.40
2008,09,03,05,47,10.40
2008,09,03,05,48,10.40
2008,09,03,05,49,10.40
2008,09,03,05,50,10.40
2008,09,03,05,51,10.40
2008,09,03,05,52,10.40
2008,09,03,05,53,10.40
2008,09,03,05,54,10.40
2008,09,03,05,55,10.40
2008,09,03,05,56,10.40
2008,09,03,05,57,10.40
2008,09,03,05,58,10.40
2008,09,03,05,59,10.40
2008,09,03,06,00,10.40
2008,09,03,06,01,10.40
2008,09,03,06,02,10.40
2008,09,03,06,03,10.40
2008,09,03,06,04,10.50
2008,09,03,06,05,10.60
2008,09,03,06,06,10.60
2008,09,03,06,07,10.60
2008,09,03,06,08,10.60
2008,09,03,06,09,10.60
2008,09,03,06,10,10.60
2008,09,03,06,11,10.40
2008,09,03,06,12,10.40
2008,09,03,06,13,10.40
2008,09,03,06,14,10.40
2008,09,03,06,15,10.40
2008,09,03,06,16,10.40
2008,09,03,06,17,10.30
2008,09,03,06,18,10.30
2008,09,03,06,19,10.30
2008,09,03,06,20,10.30
2008,09,03,06,21,10.20
2008,09,03,06,22,10.20
2008,09,03,06,23,10.20
2008,09,03,06,24,10.20
2008,09,03,06,25,10.20
2008,09,03,06,26,10.30
2008,09,03,06,27,10.30
2008,09,03,06,28,10.30
2008,09,03,06,29,10.30
2008,09,03,06,30,10.30
2008,09,03,06,31,10.40
2008,09,03,06,32,10.40
2008,09,03,06,33,10.40
2008,09,03,06,34,10.40
2008,09,03,06,35,10.40
2008,09,03,06,36,10.40
2008,09,03,06,37,10.40
2008,09,03,06,38,10.40
2008,09,03,06,39,10.40
2008,09,03,06,40,10.40
2008,09,03,06,41,10.40
2008,09,03,06,42,10.40
2008,09,03,06,43,10.40
2008,09,03,06,44,10.40
2008,09,03,06,45,10.40
2008,09,03,06,46,10.40
2008,09,03,06,47,10.40
2008,09,03,06,48,10.40
2008,09,03,06,49,10.40
2008,09,03,06,50,10.40
2008,09,03,06,51,10.40
2008,09,03,06,52,10.40
2008,09,03,06,53,10.40
2008,09,03,06,54,10.40
2008,09,03,06,55,10.40
2008,09,03,06,56,10.40
2008,09,03,06,57,10.50
2008,09,03,06,58,10.60
2008,09,03,06,59,10.60
2008,09,03,07,00,10.60
2008,09,03,07,01,10.60
2008,09,03,07,02,10.60
2008,09,03,07,03,10.60
2008,09,03,07,04,10.60
2008,09,03,07,05,10.60
2008,09,03,07,06,10.60
2008,09,03,07,07,10.60
2008,09,03,07,08,10.60
2008,09,03,07,09,10.60
2008,09,03,07,10,10.60
2008,09,03,07,11,10.60
2008,09,03,07,12,10.60
2008,09,03,07,13,10.60
2008,09,03,07,14,10.60
2008,09,03,07,15,10.60
2008,09,03,07,16,10.60
2008,09,03,07,17,10.60
2008,09,03,07,18,10.60
2008,09,03,07,19,10.60
2008,09,03,07,20,10.60
2008,09,03,07,21,10.60
2008,09,03,07,22,10.60
2008,09,03,07,23,10.60
2008,09,03,07,24,10.60
2008,09,03,07,25,10.60
2008,09,03,07,26,10.60
2008,09,03,07,27,10.60
2008,09,03,07,28,10.60
2008,09,03,07,29,10.60
2008,09,03,07,30,10.60
2008,09,03,07,31,10.60
2008,09,03,07,32,10.60
2008,09,03,07,33,10.60
2008,09,03,07,34,10.60
2008,09,03,07,35,10.60
2008,09,03,07,36,10.60
2008,09,03,07,37,10.60
2008,09,03,07,38,10.60
2008,09,03,07,39,10.60
2008,09,03,07,40,10.60
2008,09,03,07,41,10.60
2008,09,03,07,42,10.70
2008,09,03,07,43,10.70
2008,09,03,07,44,10.70
2008,09,03,07,45,10.70
2008,09,03,07,46,10.70
2008,09,03,07,47,10.70
2008,09,03,07,48,10.70
2008,09,03,07,49,10.70
2008,09,03,07,50,10.70
2008,09,03,07,51,10.80
2008,09,03,07,52,10.80
2008,09,03,07,53,10.80
2008,09,03,07,54,10.80
2008,09,03,07,55,10.90
2008,09,03,07,56,10.90
2008,09,03,07,57,10.90
2008,09,03,07,58,10.90
2008,09,03,07,59,10.90
2008,09,03,08,00,10.90
2008,09,03,08,01,11.10
2008,09,03,08,02,11.10
2008,09,03,08,03,11.10
2008,09,03,08,04,11.10
2008,09,03,08,05,11.10
2008,09,03,08,06,11.20
2008,09,03,08,07,11.20
2008,09,03,08,08,11.30
2008,09,03,08,09,11.30
2008,09,03,08,10,11.40
2008,09,03,08,11,11.40
2008,09,03,08,12,11.40
2008,09,03,08,13,11.50
2008,09,03,08,14,11.60
2008,09,03,08,15,11.60
2008,09,03,08,16,11.60
2008,09,03,08,17,11.60
2008,09,03,08,18,11.60
2008,09,03,08,19,11.60
2008,09,03,08,20,11.60
2008,09,03,08,21,11.60
2008,09,03,08,22,11.60
2008,09,03,08,23,11.60
2008,09,03,08,24,11.60
2008,09,03,08,25,11.70
2008,09,03,08,26,11.80
2008,09,03,08,27,11.80
2008,09,03,08,28,11.90
2008,09,03,08,29,11.90
2008,09,03,08,30,11.90
2008,09,03,08,31,12.00
2008,09,03,08,32,12.00
2008,09,03,08,33,12.10
2008,09,03,08,34,12.10
2008,09,03,08,35,12.20
2008,09,03,08,36,12.20
2008,09,03,08,37,12.20
2008,09,03,08,38,12.30
2008,09,03,08,39,12.30
2008,09,03,08,40,12.30
2008,09,03,08,41,12.40
2008,09,03,08,42,12.40
2008,09,03,08,43,12.50
2008,09,03,08,44,12.50
2008,09,03,08,45,12.60
2008,09,03,08,46,12.60
2008,09,03,08,47,12.70
2008,09,03,08,48,12.80
2008,09,03,08,49,12.80
2008,09,03,08,50,12.80
2008,09,03,08,51,12.80
2008,09,03,08,52,12.90
2008,09,03,08,53,12.90
2008,09,03,08,54,12.90
2008,09,03,08,55,13.00
2008,09,03,08,56,13.00
2008,09,03,08,57,13.10
2008,09,03,08,58,13.10
2008,09,03,08,59,13.10
2008,09,03,09,00,13.20
2008,09,03,09,01,13.20
2008,09,03,09,02,13.30
2008,09,03,09,03,13.30
2008,09,03,09,04,13.30
2008,09,03,09,05,13.30
2008,09,03,09,06,13.30
2008,09,03,09,07,13.30
2008,09,03,09,08,13.30
2008,09,03,09,09,13.30
2008,09,03,09,10,13.30
2008,09,03,09,11,13.30
2008,09,03,09,12,13.30
2008,09,03,09,13,13.40
2008,09,03,09,14,13.40
2008,09,03,09,15,13.40
2008,09,03,09,16,13.50
2008,09,03,09,17,13.50
2008,09,03,09,18,13.50
2008,09,03,09,19,13.60
2008,09,03,09,20,13.60
2008,09,03,09,21,13.70
2008,09,03,09,22,13.70
2008,09,03,09,23,13.70
2008,09,03,09,24,13.70
2008,09,03,09,25,13.80
2008,09,03,09,26,13.80
2008,09,03,09,27,13.90
2008,09,03,09,28,13.90
2008,09,03,09,29,13.90
2008,09,03,09,30,14.00
2008,09,03,09,31,14.00
2008,09,03,09,32,14.00
2008,09,03,09,33,14.00
2008,09,03,09,34,14.10
2008,09,03,09,35,14.10
2008,09,03,09,36,14.20
2008,09,03,09,37,14.20
2008,09,03,09,38,14.20
2008,09,03,09,39,14.20
2008,09,03,09,40,14.20
2008,09,03,09,41,14.20
2008,09,03,09,42,14.20
2008,09,03,09,43,14.20
2008,09,03,09,44,14.10
2008,09,03,09,45,14.10
2008,09,03,09,46,14.10
2008,09,03,09,47,14.20
2008,09,03,09,48,14.20
2008,09,03,09,49,14.20
2008,09,03,09,50,14.20
2008,09,03,09,51,14.20
2008,09,03,09,52,14.30
2008,09,03,09,53,14.30
2008,09,03,09,54,14.30
2008,09,03,09,55,14.30
2008,09,03,09,56,14.30
2008,09,03,09,57,14.30
2008,09,03,09,58,14.30
2008,09,03,09,59,14.30
2008,09,03,10,00,14.20
2008,09,03,10,01,14.20
2008,09,03,10,02,14.20
2008,09,03,10,03,14.20
2008,09,03,10,04,14.30
2008,09,03,10,05,14.30
2008,09,03,10,06,14.30
2008,09,03,10,07,14.40
2008,09,03,10,08,14.40
2008,09,03,10,09,14.50
2008,09,03,10,10,14.60
2008,09,03,10,11,14.60
2008,09,03,10,12,14.80
2008,09,03,10,13,14.90
2008,09,03,10,14,15.10
2008,09,03,10,15,15.20
2008,09,03,10,16,15.30
2008,09,03,10,17,15.40
2008,09,03,10,18,15.50
2008,09,03,10,19,15.60
2008,09,03,10,20,15.70
2008,09,03,10,21,15.80
2008,09,03,10,22,15.80
2008,09,03,10,23,15.80
2008,09,03,10,24,15.80
2008,09,03,10,25,15.80
2008,09,03,10,26,15.80
2008,09,03,10,27,15.80
2008,09,03,10,28,15.80
2008,09,03,10,29,15.80
2008,09,03,10,30,15.80
2008,09,03,10,31,15.80
2008,09,03,10,32,15.80
2008,09,03,10,33,15.80
2008,09,03,10,34,15.80
2008,09,03,10,35,15.80
2008,09,03,10,36,15.80
2008,09,03,10,37,15.70
2008,09,03,10,38,15.60
2008,09,03,10,39,15.60
2008,09,03,10,40,15.60
2008,09,03,10,41,15.50
2008,09,03,10,42,15.50
2008,09,03,10,43,15.50
2008,09,03,10,44,15.60
2008,09,03,10,45,15.70
2008,09,03,10,46,15.80
2008,09,03,10,47,15.80
2008,09,03,10,48,15.80
2008,09,03,10,49,15.90
2008,09,03,10,50,15.90
2008,09,03,10,51,16.10
2008,09,03,10,52,16.20
2008,09,03,10,53,16.20
2008,09,03,10,54,16.30
2008,09,03,10,55,16.30
2008,09,03,10,56,16.40
2008,09,03,10,57,16.40
2008,09,03,10,58,16.40
2008,09,03,10,59,16.60
2008,09,03,11,00,16.60
2008,09,03,11,01,16.70
2008,09,03,11,02,16.60
2008,09,03,11,03,16.60
2008,09,03,11,04,16.60
2008,09,03,11,05,16.60
2008,09,03,11,06,16.60
2008,09,03,11,07,16.60
2008,09,03,11,08,16.60
2008,09,03,11,09,16.50
2008,09,03,11,10,16.40
2008,09,03,11,11,16.40
2008,09,03,11,12,16.40
2008,09,03,11,13,16.40
2008,09,03,11,14,16.40
2008,09,03,11,15,16.40
2008,09,03,11,16,16.30
2008,09,03,11,17,16.30
2008,09,03,11,18,16.30
2008,09,03,11,19,16.30
2008,09,03,11,20,16.30
2008,09,03,11,21,16.30
2008,09,03,11,22,16.20
2008,09,03,11,23,16.10
2008,09,03,11,24,16.20
2008,09,03,11,25,16.20
2008,09,03,11,26,16.30
2008,09,03,11,27,16.40
2008,09,03,11,28,16.50
2008,09,03,11,29,16.60
2008,09,03,11,30,16.60
2008,09,03,11,31,16.40
2008,09,03,11,32,16.40
2008,09,03,11,33,16.40
2008,09,03,11,34,16.40
2008,09,03,11,35,16.40
2008,09,03,11,36,16.50
2008,09,03,11,37,16.60
2008,09,03,11,38,16.60
2008,09,03,11,39,16.50
2008,09,03,11,40,16.40
2008,09,03,11,41,16.40
2008,09,03,11,42,16.40
2008,09,03,11,43,16.60
2008,09,03,11,44,16.70
2008,09,03,11,45,16.70
2008,09,03,11,46,16.70
2008,09,03,11,47,16.70
2008,09,03,11,48,16.70
2008,09,03,11,49,16.80
2008,09,03,11,50,16.80
2008,09,03,11,51,16.80
2008,09,03,11,52,16.80
2008,09,03,11,53,16.80
2008,09,03,11,54,16.70
2008,09,03,11,55,16.70
2008,09,03,11,56,16.70
2008,09,03,11,57,16.70
2008,09,03,11,58,16.60
2008,09,03,11,59,16.70
2008,09,03,12,00,16.70
2008,09,03,12,01,16.60
2008,09,03,12,02,16.60
2008,09,03,12,03,16.40
2008,09,03,12,04,16.30
2008,09,03,12,05,16.20
2008,09,03,12,06,16.30
2008,09,03,12,07,16.30
2008,09,03,12,08,16.30
2008,09,03,12,09,16.40
2008,09,03,12,10,16.40
2008,09,03,12,11,16.40
2008,09,03,12,12,16.50
2008,09,03,12,13,16.60
2008,09,03,12,14,16.70
2008,09,03,12,15,16.70
2008,09,03,12,16,16.60
2008,09,03,12,17,16.60
2008,09,03,12,18,16.60
2008,09,03,12,19,16.70
2008,09,03,12,20,16.80
2008,09,03,12,21,16.90
2008,09,03,12,22,17.10
2008,09,03,12,23,17.20
2008,09,03,12,24,17.40
2008,09,03,12,25,17.50
2008,09,03,12,26,17.50
2008,09,03,12,27,17.70
2008,09,03,12,28,17.70
2008,09,03,12,29,17.70
2008,09,03,12,30,17.60
2008,09,03,12,31,17.50
2008,09,03,12,32,17.40
2008,09,03,12,33,17.30
2008,09,03,12,34,17.30
2008,09,03,12,35,17.30
2008,09,03,12,36,17.30
2008,09,03,12,37,17.30
2008,09,03,12,38,17.30
2008,09,03,12,39,17.20
2008,09,03,12,40,17.20
2008,09,03,12,41,17.30
2008,09,03,12,42,17.30
2008,09,03,12,43,17.40
2008,09,03,12,44,17.50
2008,09,03,12,45,17.60
2008,09,03,12,46,17.70
2008,09,03,12,47,17.70
2008,09,03,12,48,17.80
2008,09,03,12,49,17.80
2008,09,03,12,50,17.80
2008,09,03,12,51,17.90
2008,09,03,12,52,17.90
2008,09,03,12,53,17.90
2008,09,03,12,54,17.90
2008,09,03,12,55,17.90
2008,09,03,12,56,17.90
2008,09,03,12,57,17.90
2008,09,03,12,58,18.00
2008,09,03,12,59,18.10
2008,09,03,13,00,18.10
2008,09,03,13,01,18.10
2008,09,03,13,02,18.10
2008,09,03,13,03,18.20
2008,09,03,13,04,18.10
2008,09,03,13,05,17.90
2008,09,03,13,06,17.80
2008,09,03,13,07,17.70
2008,09,03,13,08,17.70
2008,09,03,13,09,17.70
2008,09,03,13,10,17.70
2008,09,03,13,11,17.70
2008,09,03,13,12,17.70
2008,09,03,13,13,17.60
2008,09,03,13,14,17.50
2008,09,03,13,15,17.50
2008,09,03,13,16,17.50
2008,09,03,13,17,17.70
2008,09,03,13,18,17.70
2008,09,03,13,19,17.70
2008,09,03,13,20,17.70
2008,09,03,13,21,17.70
2008,09,03,13,22,17.70
2008,09,03,13,23,17.70
2008,09,03,13,24,17.70
2008,09,03,13,25,17.70
2008,09,03,13,26,17.70
2008,09,03,13,27,17.70
2008,09,03,13,28,17.90
2008,09,03,13,29,17.90
2008,09,03,13,30,17.90
2008,09,03,13,31,17.90
2008,09,03,13,32,17.90
2008,09,03,13,33,18.10
2008,09,03,13,34,18.20
2008,09,03,13,35,18.20
2008,09,03,13,36,18.20
2008,09,03,13,37,18.30
2008,09,03,13,38,18.40
2008,09,03,13,39,18.40
2008,09,03,13,40,18.40
2008,09,03,13,41,18.40
2008,09,03,13,42,18.30
2008,09,03,13,43,18.30
2008,09,03,13,44,18.20
2008,09,03,13,45,18.20
2008,09,03,13,46,18.10
2008,09,03,13,47,18.00
2008,09,03,13,48,17.90
2008,09,03,13,49,17.90
2008,09,03,13,50,17.70
2008,09,03,13,51,17.70
2008,09,03,13,52,17.50
2008,09,03,13,53,17.50
2008,09,03,13,54,17.60
2008,09,03,13,55,17.70
2008,09,03,13,56,17.80
2008,09,03,13,57,18.00
2008,09,03,13,58,18.20
2008,09,03,13,59,18.30
2008,09,03,14,00,18.40
2008,09,03,14,01,18.50
2008,09,03,14,02,18.50
2008,09,03,14,03,18.50
2008,09,03,14,04,18.50
2008,09,03,14,05,18.40
2008,09,03,14,06,18.50
2008,09,03,14,07,18.50
2008,09,03,14,08,18.50
2008,09,03,14,09,18.50
2008,09,03,14,10,18.60
2008,09,03,14,11,18.60
2008,09,03,14,12,18.60
2008,09,03,14,13,18.50
2008,09,03,14,14,18.50
2008,09,03,14,15,18.50
2008,09,03,14,16,18.50
2008,09,03,14,17,18.60
2008,09,03,14,18,18.70
2008,09,03,14,19,18.90
2008,09,03,14,20,19.00
2008,09,03,14,21,19.10
2008,09,03,14,22,19.10
2008,09,03,14,23,19.00
2008,09,03,14,24,18.90
2008,09,03,14,25,18.90
2008,09,03,14,26,18.90
2008,09,03,14,27,18.90
2008,09,03,14,28,18.60
2008,09,03,14,29,18.60
2008,09,03,14,30,18.70
2008,09,03,14,31,18.60
2008,09,03,14,32,18.60
2008,09,03,14,33,18.50
2008,09,03,14,34,18.40
2008,09,03,14,35,18.30
2008,09,03,14,36,18.20
2008,09,03,14,37,18.20
2008,09,03,14,38,18.20
2008,09,03,14,39,18.30
2008,09,03,14,40,18.30
2008,09,03,14,41,18.30
2008,09,03,14,42,18.30
2008,09,03,14,43,18.20
2008,09,03,14,44,18.20
2008,09,03,14,45,18.20
2008,09,03,14,46,18.20
2008,09,03,14,47,18.20
2008,09,03,14,48,18.10
2008,09,03,14,49,18.20
2008,09,03,14,50,18.20
2008,09,03,14,51,18.20
2008,09,03,14,52,18.20
2008,09,03,14,53,18.20
2008,09,03,14,54,18.30
2008,09,03,14,55,18.30
2008,09,03,14,56,18.20
2008,09,03,14,57,18.20
2008,09,03,14,58,18.10
2008,09,03,14,59,18.10
2008,09,03,15,00,18.10
2008,09,03,15,01,18.10
2008,09,03,15,02,18.30
2008,09,03,15,03,18.50
2008,09,03,15,04,18.60
2008,09,03,15,05,18.70
2008,09,03,15,06,18.80
2008,09,03,15,07,18.80
2008,09,03,15,08,18.80
2008,09,03,15,09,18.80
2008,09,03,15,10,18.90
2008,09,03,15,11,18.90
2008,09,03,15,12,18.90
2008,09,03,15,13,18.80
2008,09,03,15,14,18.80
2008,09,03,15,15,18.80
2008,09,03,15,16,18.70
2008,09,03,15,17,18.70
2008,09,03,15,18,18.50
2008,09,03,15,19,18.50
2008,09,03,15,20,18.40
2008,09,03,15,21,18.50
2008,09,03,15,22,18.60
2008,09,03,15,23,18.60
2008,09,03,15,24,18.70
2008,09,03,15,25,18.70
2008,09,03,15,26,18.80
2008,09,03,15,27,18.80
2008,09,03,15,28,18.90
2008,09,03,15,29,18.90
2008,09,03,15,30,19.10
2008,09,03,15,31,19.10
2008,09,03,15,32,19.20
2008,09,03,15,33,19.30
2008,09,03,15,34,19.30
2008,09,03,15,35,19.40
2008,09,03,15,36,19.50
2008,09,03,15,37,19.50
2008,09,03,15,38,19.50
2008,09,03,15,39,19.40
2008,09,03,15,40,19.40
2008,09,03,15,41,19.30
2008,09,03,15,42,19.30
2008,09,03,15,43,19.30
2008,09,03,15,44,19.40
2008,09,03,15,45,19.40
2008,09,03,15,46,19.40
2008,09,03,15,47,19.40
2008,09,03,15,48,19.30
2008,09,03,15,49,19.20
2008,09,03,15,50,19.10
2008,09,03,15,51,19.20
2008,09,03,15,52,19.10
2008,09,03,15,53,19.20
2008,09,03,15,54,19.20
2008,09,03,15,55,19.10
2008,09,03,15,56,19.00
2008,09,03,15,57,18.90
2008,09,03,15,58,18.90
2008,09,03,15,59,18.90
2008,09,03,16,00,18.80
2008,09,03,16,01,18.80
2008,09,03,16,02,18.80
2008,09,03,16,03,18.80
2008,09,03,16,04,18.80
2008,09,03,16,05,18.90
2008,09,03,16,06,18.90
2008,09,03,16,07,18.90
2008,09,03,16,08,18.90
2008,09,03,16,09,19.00
2008,09,03,16,10,19.10
2008,09,03,16,11,19.10
2008,09,03,16,12,19.10
2008,09,03,16,13,19.10
2008,09,03,16,14,19.10
2008,09,03,16,15,19.10
2008,09,03,16,16,19.10
2008,09,03,16,17,19.10
2008,09,03,16,18,19.10
2008,09,03,16,19,19.20
2008,09,03,16,20,19.20
2008,09,03,16,21,19.20
2008,09,03,16,22,19.20
2008,09,03,16,23,19.30
2008,09,03,16,24,19.30
2008,09,03,16,25,19.40
2008,09,03,16,26,19.40
2008,09,03,16,27,19.30
2008,09,03,16,28,19.30
2008,09,03,16,29,19.20
2008,09,03,16,30,19.10
2008,09,03,16,31,19.10
2008,09,03,16,32,19.10
2008,09,03,16,33,19.10
2008,09,03,16,34,19.10
2008,09,03,16,35,19.10
2008,09,03,16,36,19.10
2008,09,03,16,37,19.10
2008,09,03,16,38,19.10
2008,09,03,16,39,19.10
2008,09,03,16,40,19.10
2008,09,03,16,41,19.20
2008,09,03,16,42,19.10
2008,09,03,16,43,18.90
2008,09,03,16,44,18.60
2008,09,03,16,45,18.50
2008,09,03,16,46,18.50
2008,09,03,16,47,18.50
2008,09,03,16,48,18.40
2008,09,03,16,49,18.20
2008,09,03,16,50,18.10
2008,09,03,16,51,17.90
2008,09,03,16,52,17.80
2008,09,03,16,53,17.70
2008,09,03,16,54,17.70
2008,09,03,16,55,17.70
2008,09,03,16,56,17.80
2008,09,03,16,57,18.00
2008,09,03,16,58,18.20
2008,09,03,16,59,18.30
2008,09,03,17,00,18.40
2008,09,03,17,01,18.50
2008,09,03,17,02,18.50
2008,09,03,17,03,18.60
2008,09,03,17,04,18.60
2008,09,03,17,05,18.70
2008,09,03,17,06,18.70
2008,09,03,17,07,18.70
2008,09,03,17,08,18.70
2008,09,03,17,09,18.80
2008,09,03,17,10,18.80
2008,09,03,17,11,18.70
2008,09,03,17,12,18.70
2008,09,03,17,13,18.60
2008,09,03,17,14,18.60
2008,09,03,17,15,18.60
2008,09,03,17,16,18.60
2008,09,03,17,17,18.70
2008,09,03,17,18,18.70
2008,09,03,17,19,18.60